Terminal Aerodrome Forecast
Issued by NWS Milwaukee/Sullivan, WI

Home | Current Version | Previous Version | Text Only | Print | Product List | Glossary On
Versions: 1 2 3 4 5 6 7 8 9 10 11 12 13 14 15 16 17 18 19 20 21 22 23 24 25 26 27 28 29 30 31 32 33 34 35 36 37 38 39 40 41 42 43 44 45 46 47 48 49 50
000
FTUS43 KMKX 211552 AAA
TAFMKE
TAF AMD
KMKE 211552Z 2116/2218 06008KT P6SM VCSH FEW020 SCT060 BKN150
     FM211900 09008KT P6SM -RA VCTS FEW030 BKN050CB
     FM220000 12007KT P6SM VCSH BKN020
     FM220800 15006KT 3SM BR BKN015
     FM221200 19004KT P6SM BKN015
     FM221700 07005KT P6SM SCT050=

USA.gov is the U.S. government's official web portal to all federal, state and local government web resources and services.